contact:dominique.lefevre@mio.osupytheas.fr, maurice.libes@osupytheas.fr, didier.mallarino@osupytheas.fr
Project:EMSO http://www.emso-fr.org/EMSO-France
Depth: 2436.0 m
Title:EMSO Ligure Ouest : Data MII capteur MICROCAT
DateTime_Computer,Latitude,Longitude,Temperature,Conductivity,Pressure,DateTime_Instrument
DateTime_Computer,Latitude,Longitude,degC,S m-1,dbar,DateTime_Instrument
2021-11-02T00:01:19Z,42.805,6.029,13.3033,4.60044,2470.357,2021-11-02T02:02:43Z
2021-11-02T00:04:22Z,42.805,6.029,13.3039,4.60039,2470.334,2021-11-02T02:05:47Z
2021-11-02T00:07:25Z,42.805,6.029,13.3032,4.60040,2470.357,2021-11-02T02:08:50Z
2021-11-02T00:10:28Z,42.805,6.029,13.3047,4.60050,2470.366,2021-11-02T02:11:53Z
2021-11-02T00:13:31Z,42.805,6.029,13.3034,4.60052,2470.38,2021-11-02T02:14:56Z
2021-11-02T00:16:34Z,42.805,6.029,13.3033,4.60060,2470.357,2021-11-02T02:17:59Z
2021-11-02T00:19:37Z,42.805,6.029,13.3036,4.60059,2470.366,2021-11-02T02:21:02Z
2021-11-02T00:22:40Z,42.805,6.029,13.3029,4.60044,2470.357,2021-11-02T02:24:05Z
2021-11-02T00:25:43Z,42.805,6.029,13.3027,4.60047,2470.366,2021-11-02T02:27:08Z
2021-11-02T00:28:47Z,42.805,6.029,13.3012,4.60072,2470.334,2021-11-02T02:30:11Z
2021-11-02T00:31:50Z,42.805,6.029,13.3024,4.60065,2470.334,2021-11-02T02:33:15Z
2021-11-02T00:34:53Z,42.805,6.029,13.3026,4.60049,2470.343,2021-11-02T02:36:18Z
2021-11-02T00:37:56Z,42.805,6.029,13.3068,4.60059,2470.366,2021-11-02T02:39:21Z
2021-11-02T00:40:59Z,42.805,6.029,13.3041,4.60058,2470.357,2021-11-02T02:42:24Z
2021-11-02T00:44:02Z,42.805,6.029,13.3040,4.60049,2470.343,2021-11-02T02:45:27Z
2021-11-02T00:47:05Z,42.805,6.029,13.3036,4.60058,2470.366,2021-11-02T02:48:30Z
2021-11-02T00:50:08Z,42.805,6.029,13.3082,4.60061,2470.366,2021-11-02T02:51:33Z
2021-11-02T00:53:12Z,42.805,6.029,13.3033,4.60058,2470.343,2021-11-02T02:54:36Z
2021-11-02T00:56:15Z,42.805,6.029,13.3036,4.60057,2470.38,2021-11-02T02:57:40Z
2021-11-02T00:59:18Z,42.805,6.029,13.3009,4.60052,2470.366,2021-11-02T03:00:43Z
2021-11-02T01:02:21Z,42.805,6.029,13.3007,4.60050,2470.38,2021-11-02T03:03:46Z
2021-11-02T01:05:24Z,42.805,6.029,13.3063,4.60066,2470.38,2021-11-02T03:06:49Z
2021-11-02T01:08:27Z,42.805,6.029,13.3009,4.60050,2470.366,2021-11-02T03:09:52Z
2021-11-02T01:11:30Z,42.805,6.029,13.3000,4.60063,2470.366,2021-11-02T03:12:55Z
2021-11-02T01:14:33Z,42.805,6.029,13.2999,4.60045,2470.366,2021-11-02T03:15:58Z
2021-11-02T01:17:36Z,42.805,6.029,13.2996,4.60038,2470.357,2021-11-02T03:19:01Z
2021-11-02T01:20:40Z,42.805,6.029,13.2996,4.60031,2470.38,2021-11-02T03:22:04Z
2021-11-02T01:23:43Z,42.805,6.029,13.3029,4.60029,2470.38,2021-11-02T03:25:08Z
2021-11-02T01:26:46Z,42.805,6.029,13.3000,4.60032,2470.366,2021-11-02T03:28:11Z
2021-11-02T01:29:49Z,42.805,6.029,13.2992,4.60044,2470.38,2021-11-02T03:31:14Z
2021-11-02T01:32:52Z,42.805,6.029,13.3030,4.60038,2470.366,2021-11-02T03:34:17Z
2021-11-02T01:35:55Z,42.805,6.029,13.3001,4.60055,2470.366,2021-11-02T03:37:20Z
2021-11-02T01:38:58Z,42.805,6.029,13.3019,4.60049,2470.38,2021-11-02T03:40:23Z
2021-11-02T01:42:01Z,42.805,6.029,13.2995,4.60040,2470.404,2021-11-02T03:43:26Z
2021-11-02T01:45:04Z,42.805,6.029,13.3000,4.60034,2470.404,2021-11-02T03:46:29Z
2021-11-02T01:48:08Z,42.805,6.029,13.2996,4.60033,2470.427,2021-11-02T03:49:33Z
2021-11-02T01:51:11Z,42.805,6.029,13.2993,4.60033,2470.39,2021-11-02T03:52:36Z
2021-11-02T01:54:14Z,42.805,6.029,13.3000,4.60033,2470.404,2021-11-02T03:55:39Z
2021-11-02T01:57:17Z,42.805,6.029,13.2996,4.60039,2470.427,2021-11-02T03:58:42Z
2021-11-02T02:00:20Z,42.805,6.029,13.3069,4.60073,2470.39,2021-11-02T04:01:45Z
2021-11-02T02:03:23Z,42.805,6.029,13.2996,4.60061,2470.427,2021-11-02T04:04:48Z
2021-11-02T02:06:26Z,42.805,6.029,13.2996,4.60043,2470.437,2021-11-02T04:07:51Z
2021-11-02T02:09:29Z,42.805,6.029,13.3000,4.60032,2470.427,2021-11-02T04:10:54Z
2021-11-02T02:12:33Z,42.805,6.029,13.3042,4.60052,2470.413,2021-11-02T04:13:57Z
2021-11-02T02:15:36Z,42.805,6.029,13.2993,4.60063,2470.39,2021-11-02T04:17:01Z
2021-11-02T02:18:39Z,42.805,6.029,13.2993,4.60035,2470.45,2021-11-02T04:20:04Z
2021-11-02T02:21:42Z,42.805,6.029,13.2992,4.60033,2470.39,2021-11-02T04:23:07Z
2021-11-02T02:24:45Z,42.805,6.029,13.2993,4.60031,2470.437,2021-11-02T04:26:10Z
2021-11-02T02:27:48Z,42.805,6.029,13.2998,4.60021,2470.413,2021-11-02T04:29:13Z
2021-11-02T02:30:51Z,42.805,6.029,13.2995,4.60024,2470.39,2021-11-02T04:32:16Z
2021-11-02T02:33:54Z,42.805,6.029,13.2991,4.60024,2470.413,2021-11-02T04:35:19Z
2021-11-02T02:36:57Z,42.805,6.029,13.2996,4.60023,2470.427,2021-11-02T04:38:22Z
2021-11-02T02:40:01Z,42.805,6.029,13.2998,4.60025,2470.45,2021-11-02T04:41:26Z
2021-11-02T02:43:04Z,42.805,6.029,13.2993,4.60024,2470.437,2021-11-02T04:44:29Z
2021-11-02T02:46:07Z,42.805,6.029,13.2993,4.60023,2470.437,2021-11-02T04:47:32Z
2021-11-02T02:49:10Z,42.805,6.029,13.2995,4.60023,2470.45,2021-11-02T04:50:35Z
2021-11-02T02:52:13Z,42.805,6.029,13.2996,4.60020,2470.413,2021-11-02T04:53:38Z
2021-11-02T02:55:16Z,42.805,6.029,13.2991,4.60024,2470.413,2021-11-02T04:56:41Z
2021-11-02T02:58:19Z,42.805,6.029,13.2993,4.60030,2470.413,2021-11-02T04:59:44Z
2021-11-02T03:01:22Z,42.805,6.029,13.2992,4.60029,2470.413,2021-11-02T05:02:47Z
2021-11-02T03:04:26Z,42.805,6.029,13.2993,4.60037,2470.45,2021-11-02T05:05:50Z
2021-11-02T03:07:29Z,42.805,6.029,13.2996,4.60037,2470.437,2021-11-02T05:08:54Z
2021-11-02T03:10:32Z,42.805,6.029,13.2994,4.60033,2470.413,2021-11-02T05:11:57Z
2021-11-02T03:13:35Z,42.805,6.029,13.2993,4.60035,2470.474,2021-11-02T05:15:00Z
2021-11-02T03:16:38Z,42.805,6.029,13.2996,4.60029,2470.427,2021-11-02T05:18:03Z
2021-11-02T03:19:41Z,42.805,6.029,13.2993,4.60031,2470.474,2021-11-02T05:21:06Z
2021-11-02T03:22:44Z,42.805,6.029,13.2996,4.60033,2470.497,2021-11-02T05:24:09Z
2021-11-02T03:25:47Z,42.805,6.029,13.2996,4.60031,2470.437,2021-11-02T05:27:12Z
2021-11-02T03:28:50Z,42.805,6.029,13.2992,4.60032,2470.497,2021-11-02T05:30:15Z
2021-11-02T03:31:54Z,42.805,6.029,13.2995,4.60054,2470.474,2021-11-02T05:33:19Z
2021-11-02T03:34:57Z,42.805,6.029,13.2994,4.60040,2470.427,2021-11-02T05:36:22Z
2021-11-02T03:38:00Z,42.805,6.029,13.2996,4.60049,2470.437,2021-11-02T05:39:25Z
2021-11-02T03:41:03Z,42.805,6.029,13.2996,4.60031,2470.46,2021-11-02T05:42:28Z
2021-11-02T03:44:06Z,42.805,6.029,13.2996,4.60024,2470.46,2021-11-02T05:45:31Z
2021-11-02T03:47:09Z,42.805,6.029,13.2996,4.60038,2470.437,2021-11-02T05:48:34Z
2021-11-02T03:50:12Z,42.805,6.029,13.2992,4.60025,2470.437,2021-11-02T05:51:37Z
2021-11-02T03:53:15Z,42.805,6.029,13.2990,4.60026,2470.46,2021-11-02T05:54:40Z
2021-11-02T03:56:19Z,42.805,6.029,13.2990,4.60026,2470.507,2021-11-02T05:57:43Z
2021-11-02T03:59:22Z,42.805,6.029,13.2995,4.60032,2470.483,2021-11-02T06:00:47Z
2021-11-02T04:02:25Z,42.805,6.029,13.2997,4.60029,2470.483,2021-11-02T06:03:50Z
2021-11-02T04:05:28Z,42.805,6.029,13.2995,4.60026,2470.47,2021-11-02T06:06:53Z
2021-11-02T04:08:31Z,42.805,6.029,13.2991,4.60028,2470.483,2021-11-02T06:09:56Z
2021-11-02T04:11:34Z,42.805,6.029,13.2996,4.60024,2470.46,2021-11-02T06:12:59Z
2021-11-02T04:14:37Z,42.805,6.029,13.2996,4.60028,2470.507,2021-11-02T06:16:02Z
2021-11-02T04:17:40Z,42.805,6.029,13.2996,4.60026,2470.497,2021-11-02T06:19:05Z
2021-11-02T04:20:43Z,42.805,6.029,13.2992,4.60035,2470.52,2021-11-02T06:22:08Z
2021-11-02T04:23:47Z,42.805,6.029,13.2995,4.60028,2470.497,2021-11-02T06:25:11Z
2021-11-02T04:26:50Z,42.805,6.029,13.2993,4.60030,2470.47,2021-11-02T06:28:15Z
2021-11-02T04:29:53Z,42.805,6.029,13.2993,4.60032,2470.46,2021-11-02T06:31:18Z
2021-11-02T04:32:56Z,42.805,6.029,13.2996,4.60037,2470.497,2021-11-02T06:34:21Z
2021-11-02T04:35:59Z,42.805,6.029,13.2996,4.60036,2470.516,2021-11-02T06:37:24Z
2021-11-02T04:39:02Z,42.805,6.029,13.2994,4.60034,2470.497,2021-11-02T06:40:27Z
2021-11-02T04:42:05Z,42.805,6.029,13.2991,4.60034,2470.52,2021-11-02T06:43:30Z
2021-11-02T04:45:08Z,42.805,6.029,13.2997,4.60037,2470.507,2021-11-02T06:46:33Z
2021-11-02T04:48:12Z,42.805,6.029,13.2996,4.60037,2470.483,2021-11-02T06:49:36Z
2021-11-02T04:51:15Z,42.805,6.029,13.2998,4.60040,2470.507,2021-11-02T06:52:40Z
2021-11-02T04:54:18Z,42.805,6.029,13.2996,4.60046,2470.507,2021-11-02T06:55:43Z
2021-11-02T04:57:21Z,42.805,6.029,13.2993,4.60036,2470.507,2021-11-02T06:58:46Z
2021-11-02T05:00:24Z,42.805,6.029,13.2992,4.60040,2470.483,2021-11-02T07:01:49Z
2021-11-02T05:03:27Z,42.805,6.029,13.2995,4.60052,2470.483,2021-11-02T07:04:52Z
2021-11-02T05:06:30Z,42.805,6.029,13.2994,4.60049,2470.52,2021-11-02T07:07:55Z
2021-11-02T05:09:33Z,42.805,6.029,13.2994,4.60046,2470.507,2021-11-02T07:10:58Z
2021-11-02T05:12:36Z,42.805,6.029,13.2993,4.60038,2470.483,2021-11-02T07:14:01Z
2021-11-02T05:15:40Z,42.805,6.029,13.2991,4.60046,2470.52,2021-11-02T07:17:05Z
2021-11-02T05:18:43Z,42.805,6.029,13.2993,4.60046,2470.507,2021-11-02T07:20:08Z
2021-11-02T05:21:46Z,42.805,6.029,13.2993,4.60040,2470.46,2021-11-02T07:23:11Z
2021-11-02T05:24:49Z,42.805,6.029,13.2993,4.60046,2470.483,2021-11-02T07:26:14Z
2021-11-02T05:27:52Z,42.805,6.029,13.2998,4.60070,2470.507,2021-11-02T07:29:17Z
2021-11-02T05:30:55Z,42.805,6.029,13.3000,4.60085,2470.507,2021-11-02T07:32:20Z
2021-11-02T05:33:58Z,42.805,6.029,13.3028,4.60087,2470.483,2021-11-02T07:35:23Z
2021-11-02T05:37:01Z,42.805,6.029,13.3121,4.60089,2470.52,2021-11-02T07:38:26Z
2021-11-02T05:40:05Z,42.805,6.029,13.3063,4.60046,2470.483,2021-11-02T07:41:29Z
2021-11-02T05:43:08Z,42.805,6.029,13.3019,4.60041,2470.497,2021-11-02T07:44:33Z
2021-11-02T05:46:11Z,42.805,6.029,13.3034,4.60051,2470.507,2021-11-02T07:47:36Z
2021-11-02T05:49:14Z,42.805,6.029,13.3048,4.60098,2470.52,2021-11-02T07:50:39Z
2021-11-02T05:52:17Z,42.805,6.029,13.3063,4.60079,2470.52,2021-11-02T07:53:42Z
2021-11-02T05:55:20Z,42.805,6.029,13.3085,4.60074,2470.52,2021-11-02T07:56:45Z
2021-11-02T05:58:23Z,42.805,6.029,13.3071,4.60051,2470.497,2021-11-02T07:59:48Z
2021-11-02T06:01:26Z,42.805,6.029,13.3069,4.60080,2470.483,2021-11-02T08:02:51Z
2021-11-02T06:04:29Z,42.805,6.029,13.3048,4.60135,2470.497,2021-11-02T08:05:54Z
2021-11-02T06:07:33Z,42.805,6.029,13.3061,4.60067,2470.483,2021-11-02T08:08:57Z
2021-11-02T06:10:36Z,42.805,6.029,13.3078,4.60060,2470.474,2021-11-02T08:12:01Z
2021-11-02T06:13:39Z,42.805,6.029,13.3085,4.60052,2470.483,2021-11-02T08:15:04Z
2021-11-02T06:16:42Z,42.805,6.029,13.3061,4.60057,2470.46,2021-11-02T08:18:07Z
2021-11-02T06:19:45Z,42.805,6.029,13.3062,4.60052,2470.474,2021-11-02T08:21:10Z
2021-11-02T06:22:48Z,42.805,6.029,13.3048,4.60052,2470.497,2021-11-02T08:24:13Z
2021-11-02T06:25:51Z,42.805,6.029,13.3058,4.60056,2470.45,2021-11-02T08:27:16Z
2021-11-02T06:28:54Z,42.805,6.029,13.3042,4.60099,2470.497,2021-11-02T08:30:19Z
2021-11-02T06:31:58Z,42.805,6.029,13.3069,4.60052,2470.474,2021-11-02T08:33:22Z
2021-11-02T06:35:01Z,42.805,6.029,13.3071,4.60054,2470.45,2021-11-02T08:36:26Z
2021-11-02T06:38:04Z,42.805,6.029,13.3070,4.60049,2470.46,2021-11-02T08:39:29Z
2021-11-02T06:41:07Z,42.805,6.029,13.3064,4.60064,2470.497,2021-11-02T08:42:32Z
2021-11-02T06:44:10Z,42.805,6.029,13.3056,4.60050,2470.446,2021-11-02T08:45:35Z
2021-11-02T06:47:13Z,42.805,6.029,13.3046,4.60046,2470.474,2021-11-02T08:48:38Z
2021-11-02T06:50:16Z,42.805,6.029,13.3047,4.60070,2470.483,2021-11-02T08:51:41Z
2021-11-02T06:53:19Z,42.805,6.029,13.3061,4.60068,2470.483,2021-11-02T08:54:44Z
2021-11-02T06:56:22Z,42.805,6.029,13.3070,4.60050,2470.474,2021-11-02T08:57:47Z
2021-11-02T06:59:26Z,42.805,6.029,13.3083,4.60045,2470.474,2021-11-02T09:00:51Z
2021-11-02T07:02:29Z,42.805,6.029,13.3041,4.60044,2470.45,2021-11-02T09:03:54Z
2021-11-02T07:05:32Z,42.805,6.029,13.3059,4.60056,2470.474,2021-11-02T09:06:57Z
2021-11-02T07:08:35Z,42.805,6.029,13.3067,4.60052,2470.474,2021-11-02T09:10:00Z
2021-11-02T07:11:38Z,42.805,6.029,13.3068,4.60064,2470.46,2021-11-02T09:13:03Z
2021-11-02T07:14:41Z,42.805,6.029,13.3054,4.60069,2470.437,2021-11-02T09:16:06Z
2021-11-02T07:17:44Z,42.805,6.029,13.3053,4.60057,2470.474,2021-11-02T09:19:09Z
2021-11-02T07:20:47Z,42.805,6.029,13.3067,4.60057,2470.46,2021-11-02T09:22:12Z
2021-11-02T07:23:51Z,42.805,6.029,13.3045,4.60056,2470.483,2021-11-02T09:25:15Z
2021-11-02T07:26:54Z,42.805,6.029,13.3054,4.60050,2470.45,2021-11-02T09:28:19Z
2021-11-02T07:29:57Z,42.805,6.029,13.3048,4.60045,2470.45,2021-11-02T09:31:22Z
2021-11-02T07:33:00Z,42.805,6.029,13.3032,4.60053,2470.45,2021-11-02T09:34:25Z
2021-11-02T07:36:03Z,42.805,6.029,13.3044,4.60043,2470.45,2021-11-02T09:37:28Z
2021-11-02T07:39:06Z,42.805,6.029,13.3039,4.60049,2470.45,2021-11-02T09:40:31Z
2021-11-02T07:42:09Z,42.805,6.029,13.3042,4.60066,2470.474,2021-11-02T09:43:34Z
2021-11-02T07:45:12Z,42.805,6.029,13.3053,4.60047,2470.45,2021-11-02T09:46:37Z
2021-11-02T07:48:16Z,42.805,6.029,13.3052,4.60056,2470.413,2021-11-02T09:49:40Z
2021-11-02T07:51:19Z,42.805,6.029,13.3063,4.60042,2470.474,2021-11-02T09:52:44Z
2021-11-02T07:54:22Z,42.805,6.029,13.3063,4.60049,2470.46,2021-11-02T09:55:47Z
2021-11-02T07:57:25Z,42.805,6.029,13.3045,4.60049,2470.437,2021-11-02T09:58:50Z
2021-11-02T08:00:28Z,42.805,6.029,13.3039,4.60046,2470.39,2021-11-02T10:01:53Z
2021-11-02T08:03:31Z,42.805,6.029,13.3052,4.60046,2470.427,2021-11-02T10:04:56Z
2021-11-02T08:06:34Z,42.805,6.029,13.3040,4.60050,2470.437,2021-11-02T10:07:59Z
2021-11-02T08:09:37Z,42.805,6.029,13.3052,4.60052,2470.437,2021-11-02T10:11:02Z
2021-11-02T08:12:40Z,42.805,6.029,13.3036,4.60052,2470.437,2021-11-02T10:14:05Z
2021-11-02T08:15:44Z,42.805,6.029,13.3044,4.60047,2470.45,2021-11-02T10:17:09Z
2021-11-02T08:18:47Z,42.805,6.029,13.3038,4.60037,2470.437,2021-11-02T10:20:12Z
2021-11-02T08:21:50Z,42.805,6.029,13.3039,4.60047,2470.39,2021-11-02T10:23:15Z
2021-11-02T08:24:53Z,42.805,6.029,13.3044,4.60043,2470.45,2021-11-02T10:26:18Z
2021-11-02T08:27:56Z,42.805,6.029,13.3048,4.60054,2470.39,2021-11-02T10:29:21Z
2021-11-02T08:30:59Z,42.805,6.029,13.3049,4.60039,2470.413,2021-11-02T10:32:24Z
2021-11-02T08:34:02Z,42.805,6.029,13.3035,4.60046,2470.413,2021-11-02T10:35:27Z
2021-11-02T08:37:05Z,42.805,6.029,13.3043,4.60055,2470.45,2021-11-02T10:38:30Z
2021-11-02T08:40:09Z,42.805,6.029,13.3041,4.60050,2470.427,2021-11-02T10:41:33Z
2021-11-02T08:43:12Z,42.805,6.029,13.3043,4.60049,2470.413,2021-11-02T10:44:37Z
2021-11-02T08:46:15Z,42.805,6.029,13.3062,4.60039,2470.413,2021-11-02T10:47:40Z
2021-11-02T08:49:18Z,42.805,6.029,13.3051,4.60054,2470.413,2021-11-02T10:50:43Z
2021-11-02T08:52:21Z,42.805,6.029,13.3044,4.60044,2470.427,2021-11-02T10:53:46Z
2021-11-02T08:55:24Z,42.805,6.029,13.3034,4.60059,2470.413,2021-11-02T10:56:49Z
2021-11-02T08:58:27Z,42.805,6.029,13.3041,4.60039,2470.413,2021-11-02T10:59:52Z
2021-11-02T09:01:30Z,42.805,6.029,13.3041,4.60046,2470.404,2021-11-02T11:02:55Z
2021-11-02T09:04:34Z,42.805,6.029,13.3049,4.60043,2470.45,2021-11-02T11:05:58Z
2021-11-02T09:07:37Z,42.805,6.029,13.3054,4.60046,2470.413,2021-11-02T11:09:02Z
2021-11-02T09:10:40Z,42.805,6.029,13.3041,4.60046,2470.427,2021-11-02T11:12:05Z
2021-11-02T09:13:43Z,42.805,6.029,13.3026,4.60035,2470.39,2021-11-02T11:15:08Z
2021-11-02T09:16:46Z,42.805,6.029,13.3027,4.60044,2470.45,2021-11-02T11:18:11Z
2021-11-02T09:19:49Z,42.805,6.029,13.3019,4.60042,2470.404,2021-11-02T11:21:14Z
2021-11-02T09:22:52Z,42.805,6.029,13.3032,4.60037,2470.404,2021-11-02T11:24:17Z
2021-11-02T09:25:55Z,42.805,6.029,13.3029,4.60040,2470.39,2021-11-02T11:27:20Z
2021-11-02T09:28:59Z,42.805,6.029,13.3024,4.60052,2470.39,2021-11-02T11:30:23Z
2021-11-02T09:32:02Z,42.805,6.029,13.3026,4.60049,2470.404,2021-11-02T11:33:27Z
2021-11-02T09:35:05Z,42.805,6.029,13.3030,4.60042,2470.38,2021-11-02T11:36:30Z
2021-11-02T09:38:08Z,42.805,6.029,13.3025,4.60046,2470.413,2021-11-02T11:39:33Z
2021-11-02T09:41:11Z,42.805,6.029,13.3032,4.60049,2470.366,2021-11-02T11:42:36Z
2021-11-02T09:44:14Z,42.805,6.029,13.3030,4.60046,2470.366,2021-11-02T11:45:39Z
2021-11-02T09:47:17Z,42.805,6.029,13.3035,4.60044,2470.343,2021-11-02T11:48:42Z
2021-11-02T09:50:20Z,42.805,6.029,13.3035,4.60051,2470.413,2021-11-02T11:51:45Z
2021-11-02T09:53:24Z,42.805,6.029,13.3036,4.60036,2470.39,2021-11-02T11:54:48Z
2021-11-02T09:56:27Z,42.805,6.029,13.3031,4.60059,2470.39,2021-11-02T11:57:52Z
2021-11-02T09:59:30Z,42.805,6.029,13.3028,4.60046,2470.39,2021-11-02T12:00:55Z
2021-11-02T10:02:33Z,42.805,6.029,13.3024,4.60051,2470.366,2021-11-02T12:03:58Z
2021-11-02T10:05:36Z,42.805,6.029,13.3033,4.60046,2470.366,2021-11-02T12:07:01Z
2021-11-02T10:08:39Z,42.805,6.029,13.3026,4.60036,2470.39,2021-11-02T12:10:04Z
2021-11-02T10:11:42Z,42.805,6.029,13.3024,4.60043,2470.366,2021-11-02T12:13:07Z
2021-11-02T10:14:45Z,42.805,6.029,13.3036,4.60044,2470.366,2021-11-02T12:16:10Z
2021-11-02T10:17:48Z,42.805,6.029,13.3036,4.60050,2470.357,2021-11-02T12:19:13Z
2021-11-02T10:20:52Z,42.805,6.029,13.3068,4.60058,2470.38,2021-11-02T12:22:17Z
2021-11-02T10:23:55Z,42.805,6.029,13.3038,4.60047,2470.404,2021-11-02T12:25:20Z
2021-11-02T10:26:58Z,42.805,6.029,13.3039,4.60051,2470.343,2021-11-02T12:28:23Z
2021-11-02T10:30:01Z,42.805,6.029,13.3029,4.60039,2470.38,2021-11-02T12:31:26Z
2021-11-02T10:33:04Z,42.805,6.029,13.3041,4.60043,2470.366,2021-11-02T12:34:29Z
2021-11-02T10:36:07Z,42.805,6.029,13.3027,4.60044,2470.404,2021-11-02T12:37:32Z
2021-11-02T10:39:10Z,42.805,6.029,13.3036,4.60044,2470.39,2021-11-02T12:40:35Z
2021-11-02T10:42:13Z,42.805,6.029,13.3028,4.60045,2470.334,2021-11-02T12:43:38Z
2021-11-02T10:45:17Z,42.805,6.029,13.3041,4.60043,2470.38,2021-11-02T12:46:42Z
2021-11-02T10:48:20Z,42.805,6.029,13.3029,4.60053,2470.366,2021-11-02T12:49:45Z
2021-11-02T10:51:23Z,42.805,6.029,13.3013,4.60050,2470.366,2021-11-02T12:52:48Z
2021-11-02T10:54:26Z,42.805,6.029,13.3004,4.60056,2470.343,2021-11-02T12:55:51Z
2021-11-02T10:57:29Z,42.805,6.029,13.3019,4.60054,2470.404,2021-11-02T12:58:54Z
2021-11-02T11:00:32Z,42.805,6.029,13.3033,4.60045,2470.357,2021-11-02T13:01:57Z
2021-11-02T11:03:35Z,42.805,6.029,13.3036,4.60049,2470.38,2021-11-02T13:05:00Z
2021-11-02T11:06:38Z,42.805,6.029,13.3031,4.60048,2470.366,2021-11-02T13:08:03Z
2021-11-02T11:09:42Z,42.805,6.029,13.3002,4.60055,2470.366,2021-11-02T13:11:07Z
2021-11-02T11:12:45Z,42.805,6.029,13.2992,4.60044,2470.39,2021-11-02T13:14:10Z
2021-11-02T11:15:48Z,42.805,6.029,13.2994,4.60037,2470.38,2021-11-02T13:17:13Z
2021-11-02T11:18:51Z,42.805,6.029,13.2996,4.60029,2470.38,2021-11-02T13:20:16Z
2021-11-02T11:21:54Z,42.805,6.029,13.2996,4.60032,2470.343,2021-11-02T13:23:19Z
2021-11-02T11:24:57Z,42.805,6.029,13.2995,4.60034,2470.366,2021-11-02T13:26:22Z
2021-11-02T11:28:00Z,42.805,6.029,13.2994,4.60029,2470.357,2021-11-02T13:29:25Z
2021-11-02T11:31:03Z,42.805,6.029,13.2996,4.60029,2470.343,2021-11-02T13:32:28Z
2021-11-02T11:34:07Z,42.805,6.029,13.2996,4.60036,2470.343,2021-11-02T13:35:32Z
2021-11-02T11:37:10Z,42.805,6.029,13.2997,4.60038,2470.343,2021-11-02T13:38:35Z
2021-11-02T11:40:13Z,42.805,6.029,13.2996,4.60033,2470.404,2021-11-02T13:41:38Z
2021-11-02T11:43:16Z,42.805,6.029,13.3029,4.60027,2470.39,2021-11-02T13:44:41Z
2021-11-02T11:46:19Z,42.805,6.029,13.3029,4.60054,2470.357,2021-11-02T13:47:44Z
2021-11-02T11:49:22Z,42.805,6.029,13.3035,4.60049,2470.366,2021-11-02T13:50:47Z
2021-11-02T11:52:25Z,42.805,6.029,13.3021,4.60050,2470.404,2021-11-02T13:53:50Z
2021-11-02T11:55:28Z,42.805,6.029,13.3002,4.60082,2470.366,2021-11-02T13:56:53Z
2021-11-02T11:58:32Z,42.805,6.029,13.3004,4.60041,2470.343,2021-11-02T13:59:56Z
2021-11-02T12:01:35Z,42.805,6.029,13.2994,4.60041,2470.343,2021-11-02T14:03:00Z
2021-11-02T12:04:38Z,42.805,6.029,13.2992,4.60041,2470.39,2021-11-02T14:06:03Z
2021-11-02T12:07:41Z,42.805,6.029,13.2996,4.60031,2470.38,2021-11-02T14:09:06Z
2021-11-02T12:10:44Z,42.805,6.029,13.2994,4.60035,2470.38,2021-11-02T14:12:09Z
2021-11-02T12:13:47Z,42.805,6.029,13.2996,4.60029,2470.357,2021-11-02T14:15:12Z
2021-11-02T12:16:50Z,42.805,6.029,13.2998,4.60034,2470.404,2021-11-02T14:18:15Z
2021-11-02T12:19:53Z,42.805,6.029,13.2998,4.60056,2470.366,2021-11-02T14:21:18Z
2021-11-02T12:22:57Z,42.805,6.029,13.3000,4.60043,2470.343,2021-11-02T14:24:21Z
2021-11-02T12:26:00Z,42.805,6.029,13.2992,4.60035,2470.357,2021-11-02T14:27:25Z
2021-11-02T12:29:03Z,42.805,6.029,13.2994,4.60035,2470.413,2021-11-02T14:30:28Z
2021-11-02T12:32:06Z,42.805,6.029,13.3041,4.60029,2470.399,2021-11-02T14:33:31Z
2021-11-02T12:35:09Z,42.805,6.029,13.3006,4.60038,2470.404,2021-11-02T14:36:34Z
2021-11-02T12:38:12Z,42.805,6.029,13.3000,4.60046,2470.413,2021-11-02T14:39:37Z
2021-11-02T12:41:15Z,42.805,6.029,13.3000,4.60041,2470.343,2021-11-02T14:42:40Z
2021-11-02T12:44:18Z,42.805,6.029,13.3005,4.60052,2470.38,2021-11-02T14:45:43Z
2021-11-02T12:47:22Z,42.805,6.029,13.2998,4.60044,2470.38,2021-11-02T14:48:46Z
2021-11-02T12:50:25Z,42.805,6.029,13.2995,4.60035,2470.427,2021-11-02T14:51:50Z
2021-11-02T12:53:28Z,42.805,6.029,13.2996,4.60043,2470.404,2021-11-02T14:54:53Z
2021-11-02T12:56:31Z,42.805,6.029,13.2998,4.60036,2470.404,2021-11-02T14:57:56Z
2021-11-02T12:59:34Z,42.805,6.029,13.2994,4.60033,2470.39,2021-11-02T15:00:59Z
2021-11-02T13:02:37Z,42.805,6.029,13.2996,4.60027,2470.404,2021-11-02T15:04:02Z
2021-11-02T13:05:40Z,42.805,6.029,13.3000,4.60038,2470.404,2021-11-02T15:07:05Z
2021-11-02T13:08:43Z,42.805,6.029,13.2995,4.60042,2470.413,2021-11-02T15:10:08Z
2021-11-02T13:11:47Z,42.805,6.029,13.2998,4.60055,2470.404,2021-11-02T15:13:11Z
2021-11-02T13:14:50Z,42.805,6.029,13.2994,4.60033,2470.427,2021-11-02T15:16:15Z
2021-11-02T13:17:53Z,42.805,6.029,13.2998,4.60042,2470.366,2021-11-02T15:19:18Z
2021-11-02T13:20:56Z,42.805,6.029,13.2993,4.60034,2470.39,2021-11-02T15:22:21Z
2021-11-02T13:23:59Z,42.805,6.029,13.2996,4.60027,2470.413,2021-11-02T15:25:24Z
2021-11-02T13:27:02Z,42.805,6.029,13.2998,4.60035,2470.39,2021-11-02T15:28:27Z
2021-11-02T13:30:05Z,42.805,6.029,13.2996,4.60045,2470.404,2021-11-02T15:31:30Z
2021-11-02T13:33:08Z,42.805,6.029,13.2998,4.60043,2470.427,2021-11-02T15:34:33Z
2021-11-02T13:36:11Z,42.805,6.029,13.2996,4.60029,2470.437,2021-11-02T15:37:36Z
2021-11-02T13:39:15Z,42.805,6.029,13.3000,4.60027,2470.427,2021-11-02T15:40:40Z
2021-11-02T13:42:18Z,42.805,6.029,13.2998,4.60033,2470.413,2021-11-02T15:43:43Z
2021-11-02T13:45:21Z,42.805,6.029,13.2996,4.60031,2470.39,2021-11-02T15:46:46Z
2021-11-02T13:48:24Z,42.805,6.029,13.2993,4.60029,2470.413,2021-11-02T15:49:49Z
2021-11-02T13:51:27Z,42.805,6.029,13.2994,4.60036,2470.404,2021-11-02T15:52:52Z
2021-11-02T13:54:30Z,42.805,6.029,13.2996,4.60041,2470.45,2021-11-02T15:55:55Z
2021-11-02T13:57:33Z,42.805,6.029,13.2996,4.60029,2470.404,2021-11-02T15:58:58Z
2021-11-02T14:00:36Z,42.805,6.029,13.2996,4.60031,2470.437,2021-11-02T16:02:01Z
2021-11-02T14:03:40Z,42.805,6.029,13.2993,4.60032,2470.45,2021-11-02T16:05:05Z
2021-11-02T14:06:43Z,42.805,6.029,13.2994,4.60028,2470.483,2021-11-02T16:08:08Z
2021-11-02T14:09:46Z,42.805,6.029,13.2996,4.60028,2470.46,2021-11-02T16:11:11Z
2021-11-02T14:12:49Z,42.805,6.029,13.3024,4.60036,2470.437,2021-11-02T16:14:14Z
2021-11-02T14:15:52Z,42.805,6.029,13.2993,4.60057,2470.413,2021-11-02T16:17:17Z
2021-11-02T14:18:55Z,42.805,6.029,13.2992,4.60033,2470.427,2021-11-02T16:20:20Z
2021-11-02T14:21:58Z,42.805,6.029,13.2998,4.60033,2470.437,2021-11-02T16:23:23Z
2021-11-02T14:25:01Z,42.805,6.029,13.2997,4.60042,2470.46,2021-11-02T16:26:26Z
2021-11-02T14:28:05Z,42.805,6.029,13.3001,4.60047,2470.497,2021-11-02T16:29:29Z
2021-11-02T14:31:08Z,42.805,6.029,13.2992,4.60074,2470.46,2021-11-02T16:32:33Z
2021-11-02T14:34:11Z,42.805,6.029,13.2995,4.60056,2470.46,2021-11-02T16:35:36Z
2021-11-02T14:37:14Z,42.805,6.029,13.3067,4.60039,2470.437,2021-11-02T16:38:39Z
2021-11-02T14:40:17Z,42.805,6.029,13.3060,4.60051,2470.427,2021-11-02T16:41:42Z
2021-11-02T14:43:20Z,42.805,6.029,13.3036,4.60054,2470.45,2021-11-02T16:44:45Z
2021-11-02T14:46:23Z,42.805,6.029,13.3022,4.60061,2470.483,2021-11-02T16:47:48Z
2021-11-02T14:49:26Z,42.805,6.029,13.3002,4.60058,2470.507,2021-11-02T16:50:51Z
2021-11-02T14:52:30Z,42.805,6.029,13.3004,4.60054,2470.507,2021-11-02T16:53:55Z
2021-11-02T14:55:33Z,42.805,6.029,13.2998,4.60054,2470.474,2021-11-02T16:56:58Z
2021-11-02T14:58:36Z,42.805,6.029,13.3065,4.60064,2470.483,2021-11-02T17:00:01Z
2021-11-02T15:01:39Z,42.805,6.029,13.3032,4.60080,2470.497,2021-11-02T17:03:04Z